Samos, Greece

6:47 AM EEST on August 21, 2017 (GMT +0300)
Samos

Weather History for LGSM - August, 2013

Change the Weather History Date:

Monday, August 19, 2013

  Actual Average Record
Temperature  
Mean Temperature 86 °F -  
Max Temperature 95 °F 86 °F 100 °F (2010)
Min Temperature 77 °F 68 °F 68 °F (2016)
Cooling Degree Days 21    
Growing Degree Days 36 (Base 50)    
Moisture  
Dew Point 62 °F    
Average Humidity 45    
Maximum Humidity 65    
Minimum Humidity 24    
Precipitation  
Precipitation 0.00 in 0.02 in - ()
Sea Level Pressure  
Sea Level Pressure 29.78 in    
Wind  
Wind Speed 12 mph ()    
Max Wind Speed 17 mph    
Max Gust Speed 25 mph    
Visibility 6.0 miles    
Events      
Averages and records for this station are not official NWS values.
T = Trace of Precipitation, MM = Missing Value Source: Averaged Metar Reports

Daily Weather History Graph

Daily Weather History Graph

Search for Another Location

Airport or City:

Trip Planner

Search our weather history database for the weather conditions in past years. The results will help you decide how hot, cold, wet, or windy it might be!

Date:

Astronomy

Aug. 19, 2013 Rise Set
Actual Time 6:31 AM EEST 7:59 PM EEST
Civil Twilight 6:03 AM EEST 8:27 PM EEST
Nautical Twilight 5:30 AM EEST 9:00 PM EEST
Astronomical Twilight 4:55 AM EEST 9:35 PM EEST
Moon 6:36 PM EEST (8/19) 4:28 AM EEST (8/19)
Length of Visible Light 14h 23m
Length of Day
13h 28m
Waxing Gibbous, 96% of the Moon is Illuminated
Aug 19
Waxing Gibbous
Aug 21
Full
Aug 28
Last Quarter
Sep 5
New
Sep 12
First Quarter

Hourly Weather History & Observations

Time (EEST) Temp. Heat Index Dew Point Humidity Pressure Visibility Wind Dir Wind Speed Gust Speed Precip Events Conditions
4:50 AM 77.0 °F - 59.0 °F 54% 29.77 in - NNE 11.5 mph - N/A   Clear
5:20 AM 77.0 °F - 59.0 °F 54% 29.77 in - NNE 11.5 mph - N/A   Clear
5:50 AM 77.0 °F - 59.0 °F 54% 29.77 in - NNE 11.5 mph - N/A   Clear
6:20 AM 77.0 °F - 59.0 °F 54% 29.77 in - NNE 11.5 mph - N/A   Clear
6:50 AM 77.0 °F - 60.8 °F 57% 29.77 in - NNE 11.5 mph - N/A   Clear
7:20 AM 78.8 °F - 60.8 °F 54% 29.77 in - NNE 11.5 mph - N/A   Clear
7:50 AM 78.8 °F - 62.6 °F 57% 29.80 in - NNE 11.5 mph - N/A   Clear
8:20 AM 78.8 °F - 62.6 °F 57% 29.80 in - NNE 13.8 mph - N/A   Clear
8:50 AM 80.6 °F 82.7 °F 66.2 °F 61% 29.80 in - NNE 13.8 mph 25.3 mph N/A   Clear
9:00 AM 81 °F - 67 °F 53% 29.81 in 6 mi NNE 13.8 mph - -  
9:20 AM 80.6 °F 82.7 °F 66.2 °F 61% 29.80 in - NNE 13.8 mph - N/A   Clear
9:50 AM 80.6 °F 83.2 °F 68.0 °F 65% 29.80 in - NNE 17.3 mph - N/A   Clear
10:20 AM 82.4 °F 85.4 °F 68.0 °F 62% 29.80 in - NNE 17.3 mph - N/A   Clear
10:50 AM 84.2 °F 87.3 °F 68.0 °F 58% 29.80 in - NNE 13.8 mph - N/A   Clear
11:20 AM 84.2 °F 87.3 °F 68.0 °F 58% 29.80 in - NNE 13.8 mph - N/A   Clear
11:50 AM 86.0 °F 90.4 °F 69.8 °F 58% 29.83 in - NNE 13.8 mph - N/A   Clear
12:20 PM 86.0 °F 90.4 °F 69.8 °F 58% 29.83 in - NNE 13.8 mph - N/A   Clear
12:50 PM 87.8 °F 91.4 °F 68.0 °F 52% 29.83 in - NNE 11.5 mph - N/A   Clear
1:20 PM 91.4 °F 91.4 °F 60.8 °F 36% 29.80 in - North 13.8 mph - N/A   Clear
1:50 PM 91.4 °F 91.4 °F 60.8 °F 36% 29.80 in - North 13.8 mph - N/A   Clear
2:20 PM 91.4 °F 91.4 °F 60.8 °F 36% 29.80 in - North 13.8 mph - N/A   Clear
2:50 PM 93.2 °F 93.3 °F 60.8 °F 34% 29.77 in - North 13.8 mph - N/A   Clear
3:00 PM 93 °F - 60 °F 24% 29.78 in 6 mi North 13.8 mph - -  
3:20 PM 93.2 °F 93.3 °F 60.8 °F 34% 29.77 in - North 12.7 mph - N/A   Clear
3:50 PM 93.2 °F 93.3 °F 60.8 °F 34% 29.74 in - North 12.7 mph - N/A   Clear
4:20 PM 95.0 °F 93.7 °F 57.2 °F 28% 29.74 in - North 11.5 mph - N/A   Clear
4:50 PM 95.0 °F 93.7 °F 57.2 °F 28% 29.74 in - North 12.7 mph - N/A   Clear
5:20 PM 93.2 °F 92.6 °F 59.0 °F 32% 29.74 in - North 12.7 mph - N/A   Clear
5:50 PM 93.2 °F 92.6 °F 59.0 °F 32% 29.74 in - North 12.7 mph - N/A   Clear
6:20 PM 93.2 °F 92.6 °F 59.0 °F 32% 29.74 in - North 11.5 mph - N/A   Clear
6:50 PM 91.4 °F 91.4 °F 60.8 °F 36% 29.74 in - NNW 13.8 mph - N/A   Clear
7:20 PM 91.4 °F 89.9 °F 57.2 °F 31% 29.74 in - NNW 13.8 mph - N/A   Clear
7:50 PM 89.6 °F 88.1 °F 57.2 °F 33% 29.74 in - NNW 15.0 mph - N/A   Clear
8:20 PM 87.8 °F 87.1 °F 59.0 °F 38% 29.74 in - North 15.0 mph - N/A   Clear
8:50 PM 87.8 °F 87.1 °F 59.0 °F 38% 29.74 in - NNW 16.1 mph - N/A   Clear